GFSNIL_sfc_thetae_036.txt.gz
Theta_e
298 296 296 295 294 293 292 292 293 293 293 293 293 292 292 291 290 290 288 287 287 287
297 296 295 294 292 292 292 294 293 292 292 292 292 292 292 290 291 290 289 287 288 286
294 294 294 293 292 292 292 292 291 291 291 291 293 292 292 291 289 289 288 288 285 283
292 293 293 292 292 292 292 291 291 291 291 292 290 291 291 290 288 287 284 283 282 282
291 291 291 291 292 291 290 290 290 290 289 288 288 289 287 286 286 283 282 282 281 281
290 290 289 289 290 290 289 290 289 289 289 289 290 289 287 285 283 282 282 281 281 281
289 289 289 289 289 289 290 289 288 290 291 290 288 286 285 283 282 282 282 281 281 281
290 289 289 289 289 289 290 290 291 292 291 287 285 284 282 282 282 281 280 281 281 281
290 290 289 288 288 288 288 288 291 286 285 284 285 286 286 286 282 282 281 280 280 280
289 288 288 288 287 285 284 285 287 285 285 283 283 286 286 283 280 278 278 277 277 277
287 286 287 286 286 284 287 288 288 284 281 280 282 284 283 282 278 277 277 277 277 277
286 285 285 284 284 287 287 286 281 281 280 279 279 282 281 280 276 276 276 277 277 277
285 284 283 283 286 287 287 284 282 281 280 280 277 280 280 279 275 270 275 276 277 278
284 283 283 285 287 286 284 282 279 277 278 278 278 277 280 280 275 274 276 275 275 277

GFSNIL_sfc_thetae_039.txt.gz
Theta_e
307 308 306 304 303 303 302 302 303 302 302 301 301 301 300 300 299 299 298 296 296 295
305 304 303 303 303 302 302 300 301 301 300 300 300 300 300 299 297 297 296 296 295 294
301 300 301 301 301 301 301 300 300 300 300 299 299 299 298 297 296 295 295 294 293 292
300 299 300 299 299 299 299 298 298 298 298 298 296 295 295 294 293 292 292 290 289 289
298 298 297 297 297 298 297 298 297 297 296 295 294 293 292 291 291 289 288 288 288 288
297 296 296 296 297 296 296 295 296 296 295 293 294 292 292 291 289 288 287 287 287 287
296 296 296 296 296 295 295 294 294 296 295 294 292 292 290 288 288 288 288 287 287 286
296 296 295 294 295 294 294 293 294 294 293 291 290 289 288 288 288 287 286 286 285 284
295 294 293 293 293 293 292 291 291 289 289 288 288 287 286 286 286 284 282 281 282 281
293 292 292 292 291 291 291 291 289 289 288 287 287 285 285 283 283 282 281 280 280 280
291 291 290 290 289 290 290 288 289 287 286 286 285 283 283 281 282 281 281 280 280 280
290 289 289 288 289 288 288 288 287 287 285 284 283 282 281 281 281 280 280 280 280 280
290 288 288 288 288 288 288 287 287 285 285 282 282 280 280 281 282 280 280 280 280 279
289 288 288 288 288 289 287 286 285 283 284 283 282 281 280 280 281 280 279 278 278 279

GFSNIL_sfc_thetae_042.txt.gz
Theta_e
308 310 308 307 307 306 305 306 306 306 305 304 303 303 303 302 302 301 300 298 297 295
310 308 307 307 307 307 306 304 302 302 301 301 301 302 302 301 300 299 298 297 296 294
306 306 307 308 305 302 301 300 300 300 299 299 300 301 301 299 299 297 296 295 294 294
305 305 305 303 300 300 300 299 299 298 299 298 298 299 298 297 297 295 295 294 293 292
302 302 300 299 299 300 299 299 298 298 297 298 297 297 296 295 295 293 292 292 292 291
300 299 298 298 299 299 298 298 297 297 297 297 297 295 294 294 294 293 292 292 291 290
298 299 298 299 298 298 297 297 296 296 296 295 295 294 293 292 292 292 292 291 291 290
298 299 298 297 297 297 296 296 295 295 294 294 294 292 292 291 291 290 290 289 288 287
298 297 297 296 296 296 295 295 295 292 292 291 291 286 285 286 289 289 287 286 286 286
296 295 295 295 294 294 294 294 292 292 291 290 290 285 284 283 287 287 286 285 284 284
294 294 294 294 293 293 293 291 292 291 290 290 289 283 282 282 287 286 285 285 284 284
294 293 292 292 292 292 290 290 289 290 290 289 289 282 281 282 286 285 284 284 284 283
293 292 292 292 291 291 290 289 289 288 289 285 288 282 281 282 285 284 284 284 283 282
293 292 292 291 291 289 289 289 288 286 288 288 287 286 281 280 283 283 282 282 282 282

GFSNIL_sfc_thetae_045.txt.gz
Theta_e
312 311 310 308 307 307 306 306 307 306 304 302 302 301 303 302 302 302 301 299 298 297
310 308 307 307 308 307 307 305 303 302 301 301 300 300 301 301 300 301 300 298 298 297
307 306 307 307 306 304 303 301 301 300 300 300 300 300 300 299 299 298 298 297 297 295
306 306 306 304 302 301 301 300 299 299 299 298 298 299 299 298 297 296 296 296 295 294
305 304 303 301 300 301 300 300 299 298 298 298 298 298 297 294 295 295 294 293 293 292
303 302 300 299 300 300 299 299 298 298 297 297 297 297 296 294 295 294 293 292 292 291
300 300 300 300 299 299 298 298 297 297 297 296 295 295 294 294 292 292 292 292 291 290
299 300 300 299 298 298 298 297 297 296 296 295 294 292 292 292 292 291 291 290 289 289
298 298 298 297 297 297 296 296 296 295 294 292 292 286 286 286 289 289 288 287 288 287
297 296 296 296 296 295 295 295 295 293 291 290 291 286 284 284 287 288 288 287 286 285
295 295 295 295 294 294 295 294 293 292 291 290 290 285 283 282 286 288 288 287 286 285
294 294 294 293 294 294 293 292 290 290 290 290 289 284 283 282 286 287 286 286 286 285
294 294 293 293 294 293 293 290 290 289 289 290 289 284 283 282 285 285 285 285 285 282
294 293 294 294 293 293 291 289 289 288 288 289 288 288 283 282 283 284 283 283 283 284

GFSNIL_sfc_thetae_048.txt.gz
Theta_e
314 311 309 306 306 305 304 304 305 302 301 300 299 298 298 296 296 296 296 295 295 294
310 308 306 306 306 305 305 302 300 299 299 298 298 298 297 296 296 297 295 293 293 292
308 306 307 305 304 302 300 299 299 298 298 297 297 296 296 295 295 293 293 293 293 292
305 306 305 304 301 299 299 298 298 297 297 296 296 296 295 295 293 292 292 292 292 292
305 305 304 301 299 299 298 298 298 297 296 296 296 295 294 292 292 292 291 292 290 289
305 303 300 298 298 299 298 298 297 296 296 295 295 294 293 293 292 292 290 290 289 289
302 300 299 298 299 298 298 297 296 296 295 295 293 293 293 293 290 290 290 290 290 287
300 300 299 299 298 298 297 296 296 295 295 294 292 290 288 289 288 288 287 288 287 286
298 298 298 297 297 296 296 295 295 294 293 291 291 286 286 285 284 286 285 284 284 284
297 296 296 296 295 295 294 294 293 291 290 291 290 287 285 284 283 283 284 283 283 283
295 295 295 295 294 293 293 292 291 290 290 290 290 287 285 283 281 283 284 284 283 282
294 293 294 293 293 293 292 291 289 290 289 288 289 287 285 282 282 282 282 283 283 283
294 293 292 292 292 292 291 290 289 288 289 289 286 286 285 284 281 280 281 282 282 281
293 292 292 292 292 291 290 288 286 286 286 286 286 286 286 285 281 280 280 280 280 280

GFSNIL_sfc_thetae_051.txt.gz
Theta_e
307 304 302 302 303 302 302 302 297 296 295 295 295 295 294 293 292 292 292 291 291 292
303 301 302 302 302 302 300 299 296 294 294 294 294 294 293 292 292 291 290 290 290 290
302 302 302 303 302 300 298 297 296 294 294 294 294 293 293 291 291 290 289 291 290 289
302 304 303 302 300 297 297 296 295 294 294 294 293 293 292 291 291 290 289 289 289 289
304 303 303 301 298 297 296 296 295 294 294 294 293 293 292 289 290 289 289 289 288 287
303 303 300 298 297 297 295 295 294 295 294 293 293 291 291 290 290 289 289 289 287 287
302 299 297 297 296 295 295 294 294 295 294 293 291 291 290 290 288 288 288 288 288 286
297 297 297 296 295 295 295 295 294 294 293 291 290 289 287 287 286 285 285 284 285 283
297 297 295 294 294 294 294 293 293 292 291 289 290 288 287 285 283 283 283 281 282 282
296 294 294 294 293 292 292 292 291 290 289 288 288 288 287 285 281 281 281 281 281 282
293 293 293 293 293 291 291 290 289 288 288 288 289 289 288 285 280 280 281 281 281 280
293 292 292 292 291 291 290 289 288 288 287 286 286 288 287 284 281 281 281 282 281 281
293 292 291 291 290 290 290 288 287 286 286 287 285 287 287 285 280 280 280 280 280 281
293 291 290 290 290 289 288 286 284 284 284 284 284 284 288 286 281 280 280 279 278 278

GFSNIL_sfc_thetae_054.txt.gz
Theta_e
306 304 303 304 303 302 301 299 298 296 297 296 296 294 292 291 290 291 290 289 289 290
303 302 304 303 302 300 299 298 297 296 296 294 292 292 292 290 290 289 288 288 289 289
303 302 304 304 302 299 298 298 297 295 294 293 292 292 292 291 290 289 289 289 289 288
304 304 303 302 299 298 298 297 296 295 293 293 293 294 292 290 291 290 289 289 288 289
304 305 303 300 299 299 296 296 295 294 293 293 293 293 291 289 289 289 288 288 288 287
302 303 301 300 298 297 295 293 293 293 293 293 293 290 290 290 290 289 288 288 287 287
303 303 298 296 295 295 295 292 293 294 293 293 290 290 290 289 287 287 287 286 285 284
297 296 296 296 293 294 293 293 294 294 292 291 290 289 288 287 285 284 284 284 284 283
296 296 295 293 293 292 293 293 292 291 291 288 290 289 288 286 283 283 282 281 282 281
296 294 293 293 293 292 291 291 290 290 289 288 288 289 289 287 282 281 281 280 280 281
293 292 293 293 292 290 290 289 289 288 288 287 288 289 289 288 281 280 280 280 281 280
294 293 292 290 290 289 288 288 287 287 286 285 285 288 288 287 280 279 280 282 282 281
294 291 291 290 289 288 287 287 286 285 285 286 284 287 288 287 279 281 281 281 281 283
292 291 290 288 287 287 286 284 283 283 283 283 284 283 287 288 283 282 281 280 279 279

GFSNIL_sfc_thetae_057.txt.gz
Theta_e
308 307 305 304 303 301 300 298 298 299 297 297 297 295 293 291 290 290 288 288 288 288
306 303 302 303 302 299 299 300 299 297 297 296 295 293 292 290 289 289 288 287 287 287
303 303 302 301 299 299 299 299 297 296 296 294 294 292 292 291 289 289 288 288 287 287
301 302 301 299 299 299 299 298 298 297 295 294 292 292 291 290 289 288 288 288 288 288
302 302 301 300 298 299 298 298 297 296 293 292 292 292 290 288 288 288 287 287 287 286
303 302 299 298 299 298 297 296 294 292 292 292 291 290 289 288 288 288 288 287 286 286
301 301 301 298 295 295 295 293 293 293 292 292 290 289 289 289 287 286 286 286 284 283
302 300 296 294 293 295 294 294 293 293 292 290 289 289 287 286 285 284 283 283 283 282
296 296 295 295 294 293 293 293 293 291 290 288 288 289 289 287 283 283 282 281 281 281
296 294 293 293 293 293 292 291 290 290 288 287 287 289 290 289 283 282 281 280 280 281
293 293 294 295 294 291 290 288 287 287 287 286 287 289 289 289 284 281 280 280 280 281
295 295 295 292 290 289 287 286 286 286 286 285 284 287 288 287 282 281 280 281 281 282
294 293 291 289 287 287 286 285 285 284 284 285 284 287 288 287 281 280 281 281 282 284
291 290 289 287 286 285 284 283 283 283 283 283 283 284 288 288 282 282 283 282 281 281

GFSNIL_sfc_thetae_060.txt.gz
Theta_e
313 308 305 305 305 300 298 297 297 299 298 298 297 296 294 294 292 291 289 288 288 288
310 307 304 302 301 299 298 298 299 296 297 297 296 295 294 291 290 289 288 287 287 287
308 304 303 302 299 298 299 299 297 297 297 296 295 294 293 290 289 288 288 288 287 287
301 300 301 300 299 300 299 298 298 297 297 295 295 291 290 289 289 288 288 288 287 287
300 300 300 299 300 300 299 299 298 298 296 295 292 290 289 288 289 288 287 288 287 287
301 300 299 299 299 300 299 298 297 296 294 293 291 290 290 289 289 288 288 287 286 286
301 301 299 300 299 298 297 296 295 294 294 292 291 291 290 289 288 287 287 286 285 284
302 301 299 296 296 296 296 295 294 293 292 292 291 289 288 287 286 284 284 284 283 283
299 297 296 296 295 294 293 293 293 292 291 290 289 289 290 287 284 284 283 282 282 282
296 294 294 293 294 294 294 294 292 291 289 288 287 289 290 289 285 283 283 282 281 281
293 294 295 295 295 294 292 290 287 287 286 285 286 289 289 289 285 283 282 282 281 280
295 294 294 294 293 289 287 286 285 285 284 284 284 288 288 287 284 283 283 283 281 281
295 295 292 289 288 286 284 284 284 283 284 285 283 286 288 287 283 282 282 282 282 284
290 289 287 285 284 284 283 282 282 282 282 283 283 284 287 288 284 283 283 281 283 282

GFSNIL_sfc_thetae_063.txt.gz
Theta_e
318 317 316 311 312 311 308 306 306 305 304 304 303 299 298 299 297 298 299 299 299 298
320 318 314 312 314 312 309 305 304 304 304 301 301 299 297 297 296 299 299 299 298 297
320 318 315 312 311 309 305 304 303 302 299 300 299 298 298 296 298 298 298 297 296 296
321 317 313 310 309 306 304 302 299 301 301 298 297 297 295 297 298 296 297 296 295 295
313 309 307 305 304 304 302 301 301 299 299 299 296 296 296 297 296 296 295 295 295 294
305 304 304 303 303 304 301 300 299 298 297 297 298 296 297 297 296 296 295 295 294 293
305 304 303 302 301 300 301 298 297 298 298 296 297 297 296 296 296 295 295 295 294 293
304 304 301 299 299 300 298 298 299 297 296 297 296 295 296 296 295 294 294 293 292 292
301 300 297 298 297 296 296 295 295 294 294 293 296 292 290 292 295 293 292 292 292 292
298 296 295 294 295 295 297 296 295 296 297 296 296 290 290 290 294 293 293 292 291 290
295 296 296 297 297 296 296 296 296 295 294 293 293 289 289 289 293 294 293 293 292 291
296 296 297 296 296 296 294 293 292 292 292 292 292 289 288 289 292 292 291 292 292 291
296 296 295 294 293 293 292 291 291 290 291 290 291 289 288 288 291 290 290 291 291 287
292 291 291 291 291 290 290 290 289 288 290 290 290 290 288 288 289 290 289 289 290 290

GFSNIL_sfc_thetae_066.txt.gz
Theta_e
328 326 325 323 321 316 313 317 317 315 314 313 311 308 302 306 304 300 299 302 302 301
326 322 322 323 320 314 315 316 315 314 313 311 307 302 302 301 299 299 301 303 302 300
326 326 324 322 318 314 317 317 313 312 309 301 302 302 301 299 298 299 301 301 300 300
324 324 323 321 317 315 315 314 310 307 302 301 299 299 298 297 297 298 300 301 299 299
322 321 314 312 310 310 307 305 301 302 299 299 297 297 296 297 300 300 299 299 299 298
310 308 306 305 304 303 301 300 301 301 298 297 297 298 299 301 300 300 299 299 298 298
306 305 304 304 303 301 302 300 299 299 298 299 299 299 301 300 300 300 299 299 298 298
306 305 303 302 301 301 299 299 299 299 298 299 299 298 298 300 300 299 298 298 298 298
303 303 303 300 299 300 299 297 296 296 296 296 297 295 292 293 298 298 297 296 297 297
304 301 299 297 295 296 296 297 296 298 299 299 301 293 292 290 296 296 296 296 296 295
300 297 297 297 297 298 299 299 301 300 298 298 296 291 290 289 295 295 296 296 296 296
298 297 297 297 297 299 300 299 298 296 295 295 295 290 289 289 294 293 294 294 295 294
300 299 298 298 297 298 298 295 295 294 295 293 294 291 289 289 291 291 292 293 293 290
296 296 295 295 295 296 295 294 294 292 293 292 291 290 288 287 288 288 287 287 288 290

GFSNIL_sfc_thetae_069.txt.gz
Theta_e
334 332 333 330 328 325 322 322 320 316 315 315 315 317 315 309 306 303 304 302 302 303
334 332 331 330 328 325 323 320 318 316 313 313 313 311 306 302 299 300 301 300 301 303
332 331 329 325 325 323 321 317 315 314 312 310 304 303 302 300 300 299 299 299 300 302
330 328 327 324 324 322 318 315 312 308 304 303 300 299 299 298 298 297 297 300 302 301
327 325 323 321 315 311 304 305 302 302 300 300 299 298 297 296 298 298 298 300 301 300
315 312 309 306 304 303 302 302 302 301 300 298 297 297 298 299 299 301 301 301 300 299
308 306 305 303 303 303 304 302 301 301 299 299 299 299 299 300 301 301 301 301 300 299
306 305 305 302 302 301 301 301 300 299 299 299 299 299 300 301 300 300 300 300 300 300
304 303 302 302 301 301 300 300 299 298 298 298 298 295 294 295 299 298 298 297 298 298
305 302 301 300 299 297 297 297 297 300 300 300 301 295 293 291 296 295 296 296 297 296
302 299 299 298 297 297 299 301 302 302 301 299 298 292 290 289 294 294 294 295 295 296
302 299 298 297 298 300 300 302 300 299 297 296 296 290 288 290 293 293 293 294 294 294
300 300 301 301 302 300 299 297 296 295 295 291 295 287 288 288 289 288 288 289 289 288
300 301 300 298 297 296 296 295 295 293 294 292 291 290 287 285 286 285 284 284 285 287

GFSNIL_sfc_thetae_072.txt.gz
Theta_e
329 329 327 328 326 325 323 320 318 318 317 317 315 314 312 306 305 302 302 300 300 300
331 330 329 328 328 324 323 321 319 317 315 313 311 308 305 303 300 300 300 299 299 300
331 331 331 329 324 322 322 319 317 313 312 306 304 303 301 300 299 298 298 299 298 298
330 327 324 323 323 321 319 316 312 306 303 301 300 299 299 298 298 297 297 298 298 298
328 324 321 320 316 314 312 308 305 303 300 300 300 300 298 296 297 296 296 297 297 298
318 312 309 306 306 306 305 302 302 302 300 299 298 297 297 297 298 298 298 299 298 298
309 307 305 304 305 304 303 302 300 300 299 299 298 298 298 299 299 299 299 299 299 298
305 304 303 304 304 303 302 301 300 299 298 299 299 300 299 299 299 298 298 297 298 297
303 303 302 301 301 300 300 299 298 298 298 298 299 295 294 293 295 296 294 293 294 294
303 302 301 301 300 299 298 298 297 297 298 298 298 295 293 291 292 291 291 290 291 292
301 300 299 298 297 296 297 297 298 299 299 299 293 290 290 288 290 289 290 290 290 289
300 298 297 296 296 298 299 300 300 299 295 293 288 287 287 289 288 287 286 288 287 286
300 299 298 298 299 300 300 299 295 294 294 291 286 287 286 286 283 282 281 282 283 284
300 301 301 300 298 295 294 294 290 289 288 289 288 285 284 284 281 279 279 279 279 281

GFSNIL_sfc_thetae_075.txt.gz
Theta_e
321 320 320 321 323 322 322 321 318 316 315 315 315 314 312 307 304 303 301 301 301 300
324 322 320 320 322 322 320 319 317 316 314 312 312 308 306 303 302 301 300 299 299 299
324 324 324 323 321 320 320 318 316 315 312 308 306 305 303 301 300 299 299 299 299 299
326 326 325 321 320 318 316 315 313 309 308 304 302 301 300 299 299 298 298 299 298 298
324 322 321 320 320 317 313 311 308 307 304 301 300 301 300 299 299 298 297 297 297 297
316 314 314 312 311 310 308 307 306 302 301 300 299 298 298 299 298 297 298 298 298 298
310 309 307 306 307 306 305 302 301 301 300 299 299 299 299 299 298 298 299 299 298 297
305 305 304 303 302 302 301 301 300 299 299 298 298 298 298 299 298 298 297 297 298 297
304 302 301 301 301 301 300 299 299 298 297 297 299 295 295 296 293 293 291 289 290 290
302 301 301 301 300 298 297 297 297 297 297 297 297 293 293 291 290 289 288 287 287 288
301 300 300 299 298 297 297 297 296 295 295 294 291 290 289 288 287 286 285 285 285 283
299 298 297 296 296 295 294 295 296 298 290 287 286 288 288 286 283 283 282 283 282 282
299 298 296 295 294 296 298 298 293 290 288 286 284 287 287 284 280 279 278 279 280 282
298 297 296 297 297 295 291 289 285 284 285 284 283 284 285 283 278 278 278 278 278 278

GFSNIL_sfc_thetae_078.txt.gz
Theta_e
322 320 318 316 319 320 321 322 323 323 323 317 315 314 313 308 305 304 304 303 302 302
322 320 319 318 318 322 322 322 321 321 317 314 312 309 307 305 304 305 303 300 301 301
322 322 320 318 318 320 321 319 318 316 315 312 310 307 306 304 303 301 301 300 300 300
321 321 321 318 318 317 317 317 317 315 313 310 308 305 303 302 301 300 299 299 299 299
323 321 320 319 318 318 316 317 316 311 311 308 305 302 301 299 300 299 299 299 298 298
317 319 321 321 318 319 317 312 310 309 306 303 301 300 300 300 300 299 299 298 297 298
313 313 313 313 312 312 311 307 305 304 302 301 300 300 300 300 298 298 298 299 298 298
307 307 307 306 306 305 304 303 303 302 300 300 300 300 299 299 298 298 298 298 297 295
304 304 303 303 303 301 301 300 299 298 298 297 298 294 295 297 297 295 292 289 287 288
304 302 301 301 301 300 299 299 298 298 298 298 298 294 293 291 291 287 286 284 284 285
302 300 300 300 298 298 298 298 297 297 297 295 292 291 290 288 285 284 283 282 281 280
300 299 298 297 297 297 297 297 296 295 289 287 286 288 287 285 283 282 280 281 281 280
300 299 298 297 296 297 297 296 292 288 286 286 285 287 286 284 280 279 278 279 280 281
299 298 297 297 297 295 289 287 286 283 283 283 283 284 284 283 279 278 279 278 278 278

GFSNIL_sfc_thetae_081.txt.gz
Theta_e
314 315 316 315 315 315 316 317 318 321 322 321 320 317 316 313 308 306 306 304 304 305
314 316 317 318 317 316 317 318 318 321 321 317 316 314 312 310 308 306 306 305 305 304
317 320 320 320 317 315 318 319 317 315 314 313 313 311 310 308 306 305 304 304 304 302
317 320 321 321 318 316 318 318 317 316 313 313 311 309 308 306 304 303 301 300 301 300
319 320 320 320 316 318 318 317 318 316 314 311 309 307 305 303 302 301 300 300 300 299
319 320 318 319 318 318 318 318 318 316 312 308 306 304 303 303 302 301 300 300 299 299
318 318 319 318 318 318 318 318 315 313 310 307 304 304 302 301 300 300 299 299 298 298
311 311 311 311 310 309 310 309 310 306 303 302 302 301 301 300 299 298 298 298 298 294
306 307 306 306 305 305 304 304 303 301 300 299 300 296 295 297 298 297 295 289 289 288
305 304 303 303 302 300 299 300 298 298 298 298 298 293 293 292 291 289 288 286 286 284
304 302 302 300 299 298 299 298 298 298 299 298 296 292 290 288 287 285 284 283 281 280
302 300 299 298 298 298 298 297 297 295 293 292 290 289 288 286 285 282 281 281 281 280
300 299 298 298 298 298 297 296 292 288 288 288 286 287 287 284 282 279 279 280 280 281
300 299 298 297 297 294 291 288 285 284 284 285 285 285 285 284 281 280 279 278 278 278

GFSNIL_sfc_thetae_084.txt.gz
Theta_e
310 311 311 311 312 311 311 312 314 317 320 320 320 319 316 315 314 313 311 310 306 306
310 310 311 312 311 312 312 313 313 315 317 317 316 315 316 315 312 311 311 309 307 306
311 311 312 313 314 315 313 313 315 316 317 316 315 315 314 312 311 309 308 308 307 306
311 312 313 313 315 316 315 315 317 317 317 315 315 313 312 311 309 308 307 304 305 304
312 312 314 316 318 318 316 316 318 318 317 316 315 312 310 308 307 306 303 303 303 302
313 314 314 316 318 319 316 317 317 318 317 317 313 308 308 307 304 304 305 304 302 301
313 314 315 317 316 315 316 316 316 318 318 315 310 308 305 304 303 302 302 301 301 300
312 312 313 311 311 313 316 316 317 313 309 308 306 305 304 303 301 301 299 298 297 294
309 310 309 308 308 307 307 306 305 304 302 301 302 297 296 299 300 299 296 290 289 288
307 305 305 305 304 303 302 301 300 299 300 299 298 294 294 294 296 292 289 287 285 285
305 303 302 302 301 299 299 299 298 298 298 298 294 291 290 288 287 285 285 285 284 283
302 301 300 298 298 298 298 298 296 295 295 292 289 288 288 286 284 283 282 282 282 282
302 300 298 298 298 298 295 292 290 288 288 288 287 287 287 285 282 280 280 280 280 281
300 298 297 296 295 292 289 286 285 284 284 284 284 284 285 285 282 281 280 279 278 279

GFSNIL_sfc_thetae_087.txt.gz
Theta_e
317 316 316 317 317 316 316 317 319 320 322 323 324 324 324 325 324 323 321 320 318 316
317 316 316 317 318 318 319 319 320 321 322 323 324 324 325 325 323 322 321 314 313 311
316 317 318 319 318 319 320 320 321 321 322 322 324 325 324 322 322 319 317 314 311 311
317 317 318 318 319 320 321 321 320 321 321 321 320 317 315 317 318 314 313 311 310 310
317 317 317 317 318 320 320 322 321 321 320 319 318 318 316 316 314 313 312 311 310 310
316 315 316 315 316 318 318 320 320 320 320 318 318 317 317 316 314 312 311 310 308 307
316 316 316 315 317 319 321 321 322 322 322 320 319 318 316 312 311 309 308 307 306 304
317 317 317 319 320 321 321 322 323 322 321 318 316 312 310 308 306 306 303 302 300 299
316 316 318 319 319 320 320 319 318 317 315 310 308 298 297 302 303 302 296 290 290 289
313 313 313 312 312 312 311 307 305 304 303 301 300 294 294 294 297 293 290 288 287 286
309 308 307 307 305 302 301 301 300 299 299 295 292 290 290 289 289 287 286 286 285 284
305 303 302 300 299 299 298 295 294 294 292 289 288 288 287 286 285 283 283 284 284 283
302 300 299 298 297 294 292 290 289 287 287 287 286 287 286 285 283 281 280 281 281 281
299 298 297 295 293 290 288 286 284 283 284 284 285 285 285 285 283 281 280 279 279 280

GFSNIL_sfc_thetae_090.txt.gz
Theta_e
324 322 322 323 323 322 322 324 325 326 326 327 328 329 329 328 327 327 327 326 326 325
323 323 322 322 324 325 324 324 327 325 325 325 325 325 325 325 325 327 328 327 328 327
323 323 323 323 322 323 324 323 322 324 324 324 324 324 325 326 326 326 327 324 322 320
323 323 323 323 323 323 323 323 323 323 324 324 323 325 325 326 326 322 319 319 317 316
324 324 323 322 324 325 324 325 324 323 322 323 324 325 324 321 317 316 316 317 317 315
323 323 323 324 324 324 323 324 324 323 323 323 324 323 323 319 316 316 319 319 317 314
321 322 323 323 324 324 323 322 322 322 322 323 322 323 323 322 318 317 318 317 314 312
322 322 321 321 322 321 321 320 321 322 323 325 324 324 324 319 317 314 312 307 304 301
321 321 321 321 321 322 322 322 323 323 323 323 317 297 298 303 311 305 298 292 291 289
321 320 321 321 321 321 322 322 316 307 304 301 298 293 294 294 296 292 290 289 288 287
319 319 318 318 315 308 305 303 301 298 295 292 290 289 289 289 288 286 286 286 285 285
316 311 306 303 302 299 297 294 292 292 290 288 287 288 287 287 286 284 284 284 284 283
304 302 300 298 295 294 292 289 288 287 287 286 286 286 286 285 284 281 281 281 281 281
300 298 295 293 291 289 287 285 284 283 283 283 284 284 285 285 283 282 281 281 280 280

GFSNIL_sfc_thetae_093.txt.gz
Theta_e
321 318 318 321 320 317 317 317 319 320 320 326 328 328 329 329 330 330 328 328 328 326
321 320 319 322 325 323 321 320 321 322 324 325 328 328 329 329 328 328 328 328 329 327
322 324 324 323 323 325 324 325 325 326 327 328 328 328 329 327 328 327 327 328 327 327
323 324 324 324 326 325 326 325 324 326 326 326 326 328 327 327 327 326 326 327 325 324
325 326 325 326 325 328 327 328 327 326 325 325 326 327 326 325 325 325 324 325 323 317
327 326 326 326 327 327 325 324 325 325 325 325 326 325 326 326 326 325 324 321 316 315
325 325 326 327 328 328 328 326 325 327 326 326 325 325 325 324 325 324 322 320 317 316
325 326 325 326 327 326 326 325 325 325 325 324 324 322 324 324 321 322 319 300 296 293
324 323 324 325 325 325 324 323 323 322 322 321 307 294 296 303 309 301 297 291 289 288
323 322 324 322 322 322 322 321 311 305 301 296 295 292 292 292 293 290 289 288 287 286
323 322 322 322 321 313 309 303 297 294 292 290 289 289 289 288 287 286 285 285 285 284
323 321 316 307 302 298 294 291 290 289 288 287 286 287 287 287 285 283 282 283 283 283
310 305 300 297 293 291 289 287 286 285 285 286 285 286 286 285 283 281 281 281 281 282
298 296 293 291 289 287 285 284 284 283 284 285 285 286 286 285 284 283 282 281 280 281

GFSNIL_sfc_thetae_099.txt.gz
Theta_e
316 314 314 314 314 314 314 315 317 316 317 319 320 320 320 319 319 319 318 316 316 316
317 315 314 314 313 314 315 316 317 316 316 316 319 320 320 319 319 318 317 317 315 316
318 317 316 315 314 315 314 315 315 315 315 316 318 319 319 319 319 318 317 317 315 317
318 317 317 315 315 317 316 316 315 316 315 315 315 315 317 317 318 316 316 315 315 316
318 317 316 316 316 317 316 316 316 315 315 315 314 314 314 314 317 316 315 316 315 316
318 316 315 316 317 317 317 315 316 316 314 314 315 315 315 317 317 316 317 316 314 315
318 318 316 317 317 318 318 317 315 315 315 316 316 316 316 317 317 316 312 300 297 295
317 319 318 318 318 318 319 320 319 318 318 317 318 317 317 316 312 302 293 291 290 290
319 319 318 318 318 317 318 319 318 318 318 312 300 293 297 302 297 294 290 287 287 288
319 319 319 319 318 317 315 316 302 298 296 292 291 291 292 291 291 289 287 286 286 286
320 319 319 319 318 313 302 297 293 291 290 288 288 289 288 287 286 285 285 285 285 285
318 318 317 308 297 295 292 290 288 288 287 286 286 287 287 286 284 283 283 283 283 283
316 314 300 295 292 290 288 286 286 285 286 286 285 286 286 285 283 281 281 282 282 283
297 295 292 290 289 287 286 285 284 284 284 285 285 285 286 285 283 282 280 280 280 282

GFSNIL_sfc_thetae_102.txt.gz
Theta_e
317 316 316 317 317 316 316 316 317 317 317 317 318 318 319 319 318 317 316 315 316 316
316 314 315 316 317 316 317 317 316 316 316 316 317 318 318 318 317 317 317 316 316 315
316 314 314 315 314 315 315 316 316 315 315 316 316 317 318 317 318 317 317 317 316 315
316 315 313 313 312 313 314 315 316 315 315 314 314 316 317 316 317 317 316 315 316 316
318 316 315 313 312 314 312 313 314 316 315 314 313 314 315 316 316 316 314 315 313 315
318 316 316 314 314 315 315 314 313 314 314 314 314 313 313 314 313 314 315 315 315 315
318 317 317 315 314 314 315 314 314 314 313 313 313 313 313 313 312 313 312 302 299 297
317 318 317 316 315 315 315 315 314 314 314 314 313 313 312 312 312 309 295 292 291 291
316 317 316 316 315 315 315 315 314 314 313 312 310 295 297 306 302 296 291 288 288 288
316 316 316 316 315 315 314 315 316 312 306 295 294 293 294 293 293 290 288 287 287 286
317 316 316 316 315 315 309 303 297 294 292 289 289 290 290 289 288 286 286 286 286 285
318 316 316 315 313 298 295 293 291 290 288 287 286 288 288 287 285 284 283 284 284 285
316 316 313 301 296 293 291 288 287 286 286 286 285 287 287 286 284 282 282 282 282 282
303 300 297 293 290 288 286 285 285 284 285 285 285 285 286 285 282 281 281 280 280 281

GFSNIL_sfc_thetae_105.txt.gz
Theta_e
317 318 319 319 318 317 317 319 320 320 319 319 318 318 318 317 317 316 315 314 315 313
317 317 317 318 318 318 318 318 319 320 319 318 319 319 318 317 317 316 316 315 315 315
315 316 317 317 317 317 317 317 316 316 317 317 318 318 318 317 317 316 316 316 315 315
315 315 314 316 316 316 316 316 316 315 315 315 316 317 316 316 316 315 316 316 315 315
316 315 313 314 315 315 315 316 315 315 315 314 314 314 314 313 314 315 315 315 314 314
314 314 313 312 311 313 315 315 316 315 314 314 314 314 314 314 314 314 314 314 314 315
315 314 314 313 311 312 312 312 312 314 314 313 313 313 313 313 311 311 313 309 304 300
315 315 316 313 312 312 313 312 311 311 311 311 311 311 310 310 308 307 298 294 292 292
316 315 314 314 313 312 312 312 312 311 311 310 310 301 299 305 306 301 295 290 289 289
315 315 315 315 315 313 311 312 310 309 309 306 301 294 296 295 297 294 291 288 287 287
315 315 316 314 314 314 313 310 307 300 296 293 292 292 293 291 290 288 287 287 286 285
316 316 315 314 313 309 302 298 294 292 291 289 288 289 289 289 286 285 284 285 285 285
317 316 314 314 302 295 295 290 288 286 287 287 286 288 288 287 285 282 281 282 282 283
311 314 308 299 296 292 288 286 285 284 285 285 285 286 286 286 283 281 281 281 281 282

GFSNIL_sfc_thetae_108.txt.gz
Theta_e
319 320 320 318 317 318 319 318 318 316 316 317 317 317 316 315 315 314 312 312 312 313
317 318 319 319 318 318 320 320 319 317 316 316 317 317 316 316 316 315 315 314 314 314
317 317 318 318 318 317 318 319 319 319 318 317 317 317 317 316 316 316 315 315 314 314
312 317 317 317 317 317 317 318 319 319 318 318 318 317 317 316 316 315 315 315 314 314
312 313 312 316 316 317 316 317 317 317 318 317 318 318 317 316 316 315 315 315 314 314
311 312 312 314 315 316 316 316 315 315 315 316 317 317 317 317 316 315 315 315 314 314
311 312 313 312 312 314 315 315 314 315 314 314 314 314 315 315 314 314 314 313 311 308
315 315 314 313 311 312 313 314 315 314 314 314 313 313 313 313 312 310 303 297 294 293
315 314 314 313 312 311 311 311 311 312 313 311 310 300 300 307 310 307 299 291 290 289
314 314 313 313 312 311 311 312 310 309 307 305 304 296 298 297 304 301 296 290 287 286
314 314 314 313 313 312 311 310 310 307 305 301 297 293 294 292 293 291 290 288 287 285
315 314 314 313 313 312 310 306 302 299 297 295 291 291 291 290 288 286 285 285 285 284
306 314 312 313 311 301 303 293 290 288 288 288 287 289 289 289 286 284 283 283 284 284
297 307 314 310 299 296 290 287 285 284 285 285 286 287 288 287 284 283 282 282 281 282

GFSNIL_sfc_thetae_111.txt.gz
Theta_e
322 321 323 321 321 317 317 314 315 314 317 318 318 316 316 316 317 320 318 317 319 321
321 322 321 320 321 320 320 317 316 317 318 318 317 317 317 316 316 316 316 317 319 319
319 321 321 320 319 320 320 317 316 316 317 317 317 318 318 318 318 317 318 318 318 319
318 319 319 319 319 319 320 319 316 315 314 314 314 316 317 316 317 317 318 319 320 318
317 318 319 318 318 319 318 320 319 318 316 314 313 314 315 316 316 315 315 316 315 315
316 316 317 318 317 318 317 317 317 319 317 316 315 315 315 316 316 315 315 315 315 314
316 318 316 317 316 317 318 317 317 317 317 318 317 316 316 316 316 316 316 316 315 314
318 318 317 315 316 316 316 316 316 316 315 316 316 317 317 317 316 315 312 305 301 299
317 317 317 316 315 315 316 316 315 315 314 313 312 300 300 309 313 310 302 295 292 292
317 317 317 317 315 314 314 315 314 314 314 312 312 298 299 299 310 306 298 292 289 288
317 317 317 317 315 316 315 313 312 311 311 311 309 296 296 295 303 299 295 291 289 287
304 315 316 316 315 316 313 313 313 310 308 307 299 292 292 294 292 288 286 286 286 285
298 300 312 315 315 313 312 308 299 295 299 294 291 290 291 291 287 285 284 285 285 285
293 295 298 312 308 305 296 292 289 288 289 291 291 290 290 290 288 285 283 283 283 283

GFSNIL_sfc_thetae_114.txt.gz
Theta_e
325 325 325 327 326 323 320 318 317 316 317 318 318 318 317 318 320 322 325 327 325 323
325 325 324 328 326 321 321 316 314 315 315 316 316 317 317 317 318 321 324 327 328 325
324 326 326 328 323 320 320 317 314 316 316 316 315 316 317 318 321 323 324 322 322 323
322 324 326 325 324 321 320 317 315 316 316 315 316 317 316 319 318 319 320 321 321 321
322 324 324 322 321 321 318 317 316 316 316 316 317 318 318 319 319 319 318 319 318 319
320 321 322 323 323 321 320 318 316 315 314 314 316 316 317 317 316 316 317 317 317 319
320 323 324 325 323 321 320 318 318 316 314 314 313 313 315 316 316 316 316 316 316 315
321 322 322 322 323 323 322 320 319 318 317 315 314 314 313 313 314 316 315 312 311 307
319 319 320 321 321 321 322 322 322 320 316 315 314 302 301 309 313 314 313 302 296 294
317 317 317 320 319 319 319 320 319 318 318 317 315 298 299 300 314 313 305 296 292 290
310 317 318 317 317 319 319 318 318 318 318 317 315 297 298 297 306 301 297 293 291 289
299 302 308 317 317 319 318 318 317 316 315 315 317 295 295 298 297 293 291 291 290 288
295 296 300 302 316 317 319 318 314 311 309 302 307 292 293 299 294 290 288 287 286 286
292 292 295 297 303 312 306 299 294 289 289 289 291 291 291 293 295 289 286 285 283 284

GFSNIL_sfc_thetae_117.txt.gz
Theta_e
333 330 329 328 328 327 328 328 327 326 323 323 322 322 321 321 322 322 322 321 323 325
330 329 327 328 329 329 329 326 326 321 320 321 320 320 320 320 320 321 322 322 322 322
328 329 328 328 328 328 326 324 318 316 316 317 318 318 318 319 320 320 321 323 322 322
326 327 326 327 328 327 324 321 318 316 316 315 315 316 316 317 319 319 320 321 322 322
324 325 326 326 326 326 322 320 316 316 316 315 315 316 315 316 318 318 319 320 321 322
322 324 325 324 325 322 319 317 316 317 315 315 314 315 316 316 317 318 319 321 322 322
320 321 323 325 325 323 320 317 316 316 316 316 315 315 315 316 316 319 320 321 320 320
322 323 324 324 324 324 321 319 317 315 314 314 315 315 315 316 316 317 314 312 313 312
321 322 322 323 324 323 322 321 319 316 315 313 312 302 300 309 314 314 312 310 301 299
317 318 320 322 322 321 322 322 321 320 317 314 314 299 300 299 312 311 312 306 298 293
300 304 314 318 320 321 321 321 320 321 320 317 315 297 298 297 313 311 305 300 300 295
296 297 300 307 318 320 320 320 319 319 317 317 316 295 294 299 300 294 291 291 291 290
294 293 295 298 301 311 319 319 319 314 306 298 302 292 293 299 294 289 287 286 286 286
290 292 293 294 298 301 306 299 293 290 290 290 292 291 292 293 292 288 285 284 283 284

GFSNIL_sfc_thetae_120.txt.gz
Theta_e
332 332 330 329 328 327 327 327 329 327 326 325 325 324 323 323 324 324 323 322 322 322
329 328 328 328 327 327 327 328 326 326 325 324 324 323 323 322 322 323 323 322 321 321
327 327 327 327 326 327 327 325 324 322 321 321 322 322 321 320 321 321 322 321 320 320
325 326 325 325 327 325 324 324 320 317 317 317 317 319 319 319 320 320 320 321 320 319
324 324 323 323 326 326 323 321 319 317 316 315 316 316 317 317 319 319 319 320 319 318
320 321 322 323 325 323 321 319 317 316 315 314 315 315 316 316 317 318 319 319 319 318
318 320 321 324 324 322 320 317 316 316 315 315 314 315 316 316 317 318 318 319 319 319
319 321 321 322 323 322 320 317 316 316 315 315 314 315 315 315 315 316 315 315 316 316
305 319 322 321 321 321 320 317 316 315 314 313 313 300 301 308 313 313 312 308 303 301
299 303 309 319 321 320 319 319 316 315 314 312 312 298 298 300 311 310 309 305 300 297
296 297 300 305 317 319 319 318 317 315 315 313 312 298 298 296 309 308 306 303 301 298
294 294 296 297 301 307 317 317 315 316 315 314 312 296 296 298 306 298 291 291 293 292
292 292 292 293 295 300 305 316 314 300 297 296 301 292 294 299 294 288 286 286 286 287
290 290 290 291 294 295 300 296 292 288 288 288 289 292 293 294 292 288 285 284 284 284

GFSNIL_sfc_thetae_126.txt.gz
Theta_e
328 328 327 327 326 325 326 326 327 326 327 326 326 326 326 325 325 324 323 320 321 322
325 326 326 325 325 325 326 326 326 326 325 324 325 325 325 325 324 323 323 322 320 321
325 325 327 325 325 326 326 326 326 324 323 322 323 323 324 323 324 323 323 323 320 320
324 323 325 324 325 326 325 325 325 324 323 323 321 322 322 322 322 322 322 323 322 320
324 324 323 323 323 323 323 323 322 321 320 319 319 320 321 320 321 321 320 321 322 320
319 322 320 322 323 322 321 319 318 317 316 315 315 316 316 317 318 319 320 320 320 321
309 317 320 322 322 320 319 317 316 316 313 315 315 315 315 315 315 316 317 318 320 321
305 310 315 320 320 319 318 317 316 314 313 314 314 314 314 314 314 314 315 316 318 319
300 303 306 308 316 318 317 315 314 312 313 313 312 302 300 307 313 313 312 311 311 312
295 297 299 302 306 317 316 315 313 313 313 312 311 298 298 297 311 310 309 305 301 300
292 293 295 297 299 301 307 314 314 313 312 311 309 297 297 295 309 307 303 302 301 294
289 290 291 291 293 297 299 305 313 313 312 311 309 296 294 297 303 295 291 292 294 293
287 288 288 289 290 292 296 300 304 297 296 292 301 291 293 299 295 289 287 287 286 287
285 286 286 288 289 290 291 290 287 286 286 287 287 290 292 294 293 289 286 285 284 285

GFSNIL_sfc_thetae_129.txt.gz
Theta_e
329 329 328 328 329 328 328 328 329 329 329 328 328 328 327 326 325 324 323 322 322 322
328 328 327 328 328 327 328 327 327 328 327 327 327 327 326 325 325 324 324 323 321 321
324 325 326 326 325 324 325 324 326 325 325 325 325 325 325 324 324 323 323 323 321 320
324 325 324 325 324 324 324 325 325 324 324 323 322 322 323 323 323 322 323 323 322 321
323 321 321 322 323 324 324 325 324 323 322 321 320 321 321 321 321 321 321 321 321 321
312 321 321 320 321 322 322 322 322 322 321 320 320 319 319 320 320 320 321 321 321 321
305 309 318 321 321 319 320 319 319 319 318 317 316 316 316 316 315 316 317 317 318 319
301 305 307 310 318 320 318 318 318 316 314 314 314 313 313 314 314 314 313 313 315 316
296 299 300 303 307 316 318 316 314 313 313 310 310 301 299 307 313 312 311 311 312 313
293 294 295 298 301 303 307 315 314 313 312 311 309 298 298 296 310 310 310 309 306 302
290 291 292 294 295 297 300 304 313 312 312 311 308 296 297 295 308 308 304 303 302 297
287 288 289 289 291 293 295 298 303 310 311 310 309 295 294 296 305 298 293 293 293 294
286 286 286 286 288 291 293 295 294 292 290 289 297 290 292 298 298 291 287 286 286 287
284 285 285 283 285 288 289 289 287 286 285 285 286 289 291 293 295 291 287 285 285 285

GFSNIL_sfc_thetae_132.txt.gz
Theta_e
333 332 331 331 332 331 331 332 333 331 330 330 330 329 327 326 326 325 323 323 321 322
331 330 330 330 330 332 331 331 330 331 329 328 328 328 327 326 325 324 324 323 323 322
330 328 329 329 328 329 330 328 328 329 328 328 327 327 326 326 325 324 324 323 322 322
325 325 324 324 325 326 326 325 326 327 326 325 325 325 325 324 324 323 323 323 322 321
321 324 323 323 322 322 322 323 323 324 324 323 323 323 323 322 322 322 322 321 321 321
309 312 319 321 322 322 322 323 323 323 322 321 320 320 321 321 320 321 321 321 321 320
302 305 309 317 320 320 322 321 322 322 321 320 320 319 319 319 318 319 319 319 319 319
297 300 302 305 310 319 318 319 320 318 317 317 317 316 316 316 316 315 314 314 314 315
294 295 297 299 302 305 313 316 316 315 315 313 312 302 298 308 313 312 311 310 310 311
291 292 293 295 297 299 301 307 315 314 313 311 311 297 297 297 311 311 310 309 307 305
288 289 290 291 292 294 297 300 303 312 312 311 308 296 295 294 308 308 308 305 303 302
286 287 287 287 288 291 293 296 297 296 299 302 306 291 293 295 305 302 296 294 292 295
285 285 284 283 286 289 291 291 291 288 288 287 289 289 290 294 300 294 288 286 286 287
283 284 284 284 285 287 288 288 287 286 285 285 286 287 289 291 296 292 287 286 285 285

GFSNIL_sfc_thetae_135.txt.gz
Theta_e
339 338 336 336 337 334 332 333 333 331 333 334 333 332 330 328 329 332 331 329 327 328
339 336 336 337 339 335 334 333 333 332 332 333 333 333 331 328 327 327 326 326 325 325
337 335 335 336 336 336 335 333 333 332 331 331 332 332 329 328 328 326 326 326 325 325
332 333 334 334 335 335 333 331 331 330 330 329 329 329 328 327 326 325 325 326 325 324
318 323 326 327 326 328 328 327 328 327 328 328 328 329 327 325 325 325 324 323 324 323
305 308 312 323 328 327 326 324 324 324 324 325 326 326 326 325 324 324 325 325 324 325
298 300 303 308 315 323 324 324 324 324 324 324 324 325 324 324 323 324 324 326 325 324
296 298 300 302 305 312 321 322 323 322 322 323 323 322 322 323 323 323 321 321 321 321
292 294 296 298 300 302 306 315 318 318 319 319 317 302 303 313 321 320 318 318 316 317
289 290 291 294 295 297 300 306 308 315 316 316 318 301 300 301 317 319 319 315 313 311
287 288 288 290 291 293 296 298 301 299 303 314 301 295 295 295 317 316 313 312 310 309
286 287 288 287 288 290 293 294 293 292 292 294 294 288 289 295 307 308 304 299 297 298
285 285 285 286 287 290 291 290 290 288 287 287 288 288 289 292 304 299 291 289 288 287
285 285 285 286 287 287 289 289 288 287 286 285 285 286 288 289 297 293 289 287 287 287

GFSNIL_sfc_thetae_138.txt.gz
Theta_e
336 335 336 338 338 338 337 335 335 333 334 335 336 335 335 333 334 339 339 337 335 334
336 336 336 338 340 339 340 337 336 334 333 334 335 335 335 333 333 337 338 340 339 336
335 337 338 339 339 341 341 339 336 333 333 332 333 334 334 334 335 335 334 333 336 335
334 336 338 340 339 339 339 338 336 334 333 332 332 332 331 333 335 332 331 329 329 330
311 318 324 334 339 339 338 335 334 333 331 329 330 330 329 330 331 331 328 327 327 327
305 308 308 313 320 329 329 329 329 327 327 327 328 327 328 330 330 328 327 327 326 327
298 302 309 311 310 314 329 330 330 332 328 329 327 326 326 328 329 329 327 327 325 325
296 297 303 303 306 309 313 327 330 330 329 327 326 326 324 325 326 326 325 326 325 328
291 292 294 297 300 302 305 311 321 323 324 324 322 304 303 316 324 327 325 324 325 323
289 289 290 293 295 296 299 304 305 306 315 308 298 293 300 301 322 321 322 324 322 321
288 288 290 290 291 293 295 297 297 297 300 299 292 290 293 295 319 320 319 320 320 319
288 288 288 288 290 292 292 292 291 291 291 292 290 290 291 295 312 316 315 312 304 307
288 288 287 288 289 291 292 290 289 288 287 287 287 287 289 292 304 302 300 297 291 287
287 287 287 287 288 289 290 290 289 287 287 287 285 287 287 288 297 293 293 291 288 287